BAW741 LSZH-EGLL

Flight info

Callsign BAW741
Flight time 1h 36m
Altitude 34000
Route DEGES Z1 ETAGO DCT LIRSU DCT DENUT L608 LOGAN
Aircraft A321/M-SDE3FGHIRWY/LB1

Departure

Time 2026-04-26 08:07
Airport Zürich Airport (LSZH)

Arrival

Time 2026-04-26 09:44
Airport London Heathrow Airport (EGLL)
Time Latitude Longitude Altitude Speed Heading
2026-04-26 07:42 47.46175 8.55492 1397 ft 0 kts 186°
2026-04-26 07:55 47.46180 8.55493 1397 ft 3 kts 186°
2026-04-26 07:55 47.46198 8.55496 1401 ft 3 kts 186°
2026-04-26 07:55 47.46217 8.55499 1407 ft 3 kts 180°
2026-04-26 07:55 47.46236 8.55495 1404 ft 3 kts 149°
2026-04-26 07:56 47.46251 8.55476 1407 ft 3 kts 118°
2026-04-26 07:56 47.46258 8.55454 1403 ft 3 kts 100°
2026-04-26 07:56 47.46260 8.55440 1406 ft 0 kts 96°
2026-04-26 07:59 47.46260 8.55441 1405 ft 1 kts 96°
2026-04-26 07:59 47.46257 8.55473 1404 ft 5 kts 96°
2026-04-26 08:00 47.46251 8.55552 1406 ft 10 kts 96°
2026-04-26 08:00 47.46243 8.55658 1397 ft 11 kts 96°
2026-04-26 08:00 47.46235 8.55771 1400 ft 11 kts 96°
2026-04-26 08:00 47.46228 8.55894 1397 ft 12 kts 95°
2026-04-26 08:01 47.46188 8.55992 1405 ft 11 kts 170°
2026-04-26 08:01 47.46110 8.55994 1400 ft 11 kts 184°
2026-04-26 08:01 47.46033 8.55983 1400 ft 11 kts 185°
2026-04-26 08:01 47.45953 8.55965 1401 ft 12 kts 197°
2026-04-26 08:02 47.45872 8.55936 1405 ft 13 kts 166°
2026-04-26 08:02 47.45838 8.56042 1401 ft 11 kts 99°
2026-04-26 08:02 47.45830 8.56151 1408 ft 11 kts 96°
2026-04-26 08:02 47.45821 8.56271 1401 ft 14 kts 96°
2026-04-26 08:03 47.45807 8.56455 1398 ft 21 kts 95°
2026-04-26 08:03 47.45793 8.56668 1405 ft 21 kts 97°
2026-04-26 08:03 47.45777 8.56891 1402 ft 22 kts 95°
2026-04-26 08:03 47.45753 8.57010 1398 ft 0 kts 137°
2026-04-26 08:06 47.45728 8.57029 1406 ft 9 kts 162°
2026-04-26 08:06 47.45667 8.56972 1401 ft 13 kts 261°
2026-04-26 08:06 47.45679 8.56767 1404 ft 40 kts 276°
2026-04-26 08:06 47.45705 8.56424 1405 ft 62 kts 276°
2026-04-26 08:07 47.45777 8.55380 1395 ft 139 kts 275°
2026-04-26 08:07 47.45926 8.53685 1529 ft 188 kts 276°
2026-04-26 08:07 47.46005 8.51555 2632 ft 187 kts 276°
2026-04-26 08:07 47.46124 8.49743 3378 ft 201 kts 277°
2026-04-26 08:08 47.46126 8.47666 3718 ft 221 kts 256°
2026-04-26 08:08 47.45218 8.45648 4107 ft 231 kts 223°
2026-04-26 08:08 47.44117 8.43929 4786 ft 235 kts 234°
2026-04-26 08:08 47.43433 8.41734 5524 ft 236 kts 251°
2026-04-26 08:09 47.42943 8.39409 6289 ft 237 kts 253°
2026-04-26 08:09 47.42177 8.37297 6993 ft 237 kts 224°
2026-04-26 08:09 47.40772 8.36053 7623 ft 239 kts 192°
2026-04-26 08:09 47.39111 8.36118 8200 ft 240 kts 158°
2026-04-26 08:10 47.37748 8.37464 8777 ft 241 kts 126°
2026-04-26 08:10 47.37064 8.39721 9369 ft 241 kts 93°
2026-04-26 08:10 47.37295 8.42106 9888 ft 243 kts 62°
2026-04-26 08:10 47.38382 8.43985 10418 ft 244 kts 30°
2026-04-26 08:11 47.39929 8.44947 10952 ft 246 kts 20°
2026-04-26 08:11 47.41421 8.46213 11513 ft 252 kts 38°
2026-04-26 08:11 47.42646 8.48203 11683 ft 275 kts 53°
2026-04-26 08:11 47.43816 8.50624 11816 ft 297 kts 53°
2026-04-26 08:12 47.45001 8.53214 11950 ft 319 kts 61°
2026-04-26 08:12 47.45750 8.56403 12079 ft 340 kts 80°
2026-04-26 08:12 47.45886 8.58746 12226 ft 351 kts 86°
2026-04-26 08:12 47.46050 8.63787 12922 ft 359 kts 86°
2026-04-26 08:13 47.46177 8.67503 13503 ft 363 kts 86°
2026-04-26 08:13 47.46310 8.71193 14060 ft 366 kts 86°
2026-04-26 08:13 47.46456 8.75161 14586 ft 370 kts 86°
2026-04-26 08:13 47.46599 8.79047 15128 ft 373 kts 86°
2026-04-26 08:14 47.46569 8.82795 15615 ft 377 kts 95°
2026-04-26 08:14 47.46273 8.85450 15966 ft 380 kts 101°
2026-04-26 08:14 47.45704 8.89327 16485 ft 383 kts 101°
2026-04-26 08:14 47.45091 8.93528 17054 ft 386 kts 101°
2026-04-26 08:15 47.44731 8.96026 17375 ft 388 kts 101°
2026-04-26 08:15 47.44160 9.00004 17878 ft 391 kts 101°
2026-04-26 08:15 47.43588 9.03987 18383 ft 394 kts 101°
2026-04-26 08:15 47.43074 9.07583 18777 ft 396 kts 101°
2026-04-26 08:16 47.42414 9.12170 19268 ft 399 kts 101°
2026-04-26 08:16 47.41848 9.16084 19685 ft 402 kts 102°
2026-04-26 08:16 47.41196 9.20702 20163 ft 404 kts 98°
2026-04-26 08:16 47.41122 9.24325 20502 ft 405 kts 82°
2026-04-26 08:17 47.41955 9.28423 20906 ft 406 kts 61°
2026-04-26 08:17 47.43776 9.31973 21312 ft 405 kts 40°
2026-04-26 08:17 47.45669 9.34352 21623 ft 408 kts 40°
2026-04-26 08:17 47.46742 9.35873 21826 ft 410 kts 45°
2026-04-26 08:18 47.48488 9.39031 22191 ft 414 kts 55°
2026-04-26 08:18 47.49914 9.42387 22539 ft 416 kts 53°
2026-04-26 08:18 47.52306 9.45682 22936 ft 413 kts 27°
2026-04-26 08:18 47.54690 9.46965 23234 ft 411 kts
2026-04-26 08:19 47.57516 9.47072 23574 ft 409 kts 348°
2026-04-26 08:19 47.60217 9.45781 23889 ft 409 kts 337°
2026-04-26 08:19 47.62959 9.44562 24179 ft 414 kts 349°
2026-04-26 08:19 47.65836 9.44261 24493 ft 418 kts 359°
2026-04-26 08:20 47.69052 9.44634 24859 ft 421 kts
2026-04-26 08:20 47.71734 9.45174 25149 ft 424 kts
2026-04-26 08:20 47.74659 9.45754 25472 ft 425 kts
2026-04-26 08:20 47.77646 9.46209 25785 ft 427 kts
2026-04-26 08:21 47.80620 9.46495 26097 ft 428 kts
2026-04-26 08:21 47.83612 9.46586 26400 ft 430 kts 358°
2026-04-26 08:21 47.86591 9.46533 26700 ft 432 kts 356°
2026-04-26 08:21 47.89538 9.46424 26993 ft 434 kts 356°
2026-04-26 08:22 47.92626 9.46309 27299 ft 436 kts 356°
2026-04-26 08:22 47.95670 9.46231 27581 ft 438 kts 357°
2026-04-26 08:22 47.98688 9.46193 27885 ft 441 kts 357°
2026-04-26 08:22 48.01756 9.46181 28181 ft 443 kts 358°
2026-04-26 08:23 48.04839 9.46187 28483 ft 445 kts 358°
2026-04-26 08:23 48.07941 9.46202 28768 ft 447 kts 358°
2026-04-26 08:23 48.11296 9.46213 29088 ft 449 kts 358°
2026-04-26 08:23 48.14337 9.46216 29353 ft 451 kts 358°
2026-04-26 08:24 48.16472 9.46213 29534 ft 452 kts 358°
2026-04-26 08:24 48.20644 9.46201 29875 ft 455 kts 357°
2026-04-26 08:24 48.22837 9.46197 30052 ft 456 kts 358°
2026-04-26 08:24 48.26456 9.46196 30319 ft 458 kts 358°
2026-04-26 08:25 48.29196 9.46200 30501 ft 459 kts 358°
2026-04-26 08:25 48.32493 9.46208 30718 ft 460 kts 358°
2026-04-26 08:25 48.35658 9.46212 31008 ft 459 kts 358°
2026-04-26 08:25 48.38971 9.46216 31310 ft 458 kts 357°
2026-04-26 08:26 48.42432 9.46218 31628 ft 456 kts 357°
2026-04-26 08:26 48.45168 9.46220 31874 ft 456 kts 357°
2026-04-26 08:26 48.48625 9.46222 32180 ft 455 kts 357°
2026-04-26 08:26 48.51781 9.46220 32466 ft 454 kts 357°
2026-04-26 08:27 48.54645 9.46217 32723 ft 453 kts 357°
2026-04-26 08:27 48.57986 9.46190 33005 ft 453 kts 356°
2026-04-26 08:27 48.61550 9.46144 33316 ft 452 kts 356°
2026-04-26 08:27 48.64128 9.46108 33539 ft 451 kts 356°
2026-04-26 08:28 48.67118 9.45733 33782 ft 447 kts 346°
2026-04-26 08:28 48.70117 9.44514 34025 ft 442 kts 336°
2026-04-26 08:28 48.72881 9.42556 34205 ft 438 kts 326°
2026-04-26 08:28 48.74648 9.40792 34248 ft 432 kts 320°
2026-04-26 08:29 48.76780 9.37931 34251 ft 427 kts 310°
2026-04-26 08:29 48.80329 9.31167 34245 ft 424 kts 305°
2026-04-26 08:30 48.82348 9.27197 34244 ft 424 kts 305°
2026-04-26 08:30 48.85996 9.20043 34247 ft 424 kts 305°
2026-04-26 08:31 48.89653 9.12877 34250 ft 425 kts 305°
2026-04-26 08:31 48.93174 9.05929 34253 ft 425 kts 305°
2026-04-26 08:32 48.96751 8.98855 34253 ft 425 kts 305°
2026-04-26 08:32 49.00356 8.91693 34255 ft 425 kts 304°
2026-04-26 08:33 49.03926 8.84569 34244 ft 426 kts 304°
2026-04-26 08:33 49.07456 8.77516 34253 ft 426 kts 304°
2026-04-26 08:34 49.11058 8.70325 34259 ft 426 kts 304°
2026-04-26 08:34 49.14616 8.63189 34267 ft 426 kts 304°
2026-04-26 08:35 49.18196 8.55969 34273 ft 426 kts 304°
2026-04-26 08:35 49.21770 8.48744 34283 ft 426 kts 304°
2026-04-26 08:36 49.25373 8.41461 34287 ft 427 kts 304°
2026-04-26 08:36 49.28998 8.34114 34294 ft 427 kts 304°
2026-04-26 08:37 49.32461 8.27076 34300 ft 426 kts 304°
2026-04-26 08:37 49.36132 8.19562 34299 ft 426 kts 304°
2026-04-26 08:38 49.39616 8.12437 34298 ft 426 kts 305°
2026-04-26 08:38 49.43159 8.05172 34297 ft 426 kts 305°
2026-04-26 08:39 49.46114 7.99093 34294 ft 426 kts 305°
2026-04-26 08:39 49.49617 7.91866 34297 ft 426 kts 305°
2026-04-26 08:40 49.53142 7.84581 34286 ft 425 kts 305°
2026-04-26 08:40 49.56670 7.77268 34286 ft 425 kts 304°
2026-04-26 08:41 49.60216 7.69901 34289 ft 425 kts 304°
2026-04-26 08:41 49.63710 7.62617 34287 ft 425 kts 304°
2026-04-26 08:42 49.67259 7.55197 34288 ft 425 kts 304°
2026-04-26 08:42 49.70820 7.47728 34297 ft 425 kts 304°
2026-04-26 08:43 49.74272 7.40482 34306 ft 425 kts 304°
2026-04-26 08:43 49.77766 7.33113 34302 ft 425 kts 304°
2026-04-26 08:44 49.81143 7.25987 34304 ft 425 kts 304°
2026-04-26 08:44 49.84759 7.18327 34309 ft 425 kts 304°
2026-04-26 08:45 49.88421 7.10544 34309 ft 425 kts 304°
2026-04-26 08:45 49.91725 7.03495 34308 ft 424 kts 304°
2026-04-26 08:46 49.95151 6.96182 34281 ft 424 kts 304°
2026-04-26 08:46 49.98639 6.88699 34283 ft 424 kts 304°
2026-04-26 08:47 50.02183 6.81068 34285 ft 424 kts 304°
2026-04-26 08:47 50.05560 6.73796 34287 ft 424 kts 304°
2026-04-26 08:48 50.09035 6.66282 34290 ft 424 kts 304°
2026-04-26 08:48 50.12446 6.58883 34285 ft 424 kts 304°
2026-04-26 08:49 50.15897 6.51383 34286 ft 424 kts 304°
2026-04-26 08:49 50.19289 6.43891 34282 ft 424 kts 303°
2026-04-26 08:50 50.22464 6.36081 34283 ft 424 kts 300°
2026-04-26 08:50 50.25476 6.28232 34285 ft 424 kts 300°
2026-04-26 08:51 50.30057 6.16382 34286 ft 424 kts 301°
2026-04-26 08:52 50.33134 6.08536 34287 ft 424 kts 301°
2026-04-26 08:52 50.36224 6.00634 34293 ft 424 kts 301°
2026-04-26 08:53 50.39316 5.92682 34299 ft 425 kts 301°
2026-04-26 08:53 50.42362 5.84819 34308 ft 425 kts 301°
2026-04-26 08:54 50.45425 5.76896 34318 ft 425 kts 301°
2026-04-26 08:54 50.48477 5.68969 34329 ft 425 kts 301°
2026-04-26 08:55 50.51531 5.61022 34333 ft 425 kts 301°
2026-04-26 08:55 50.54624 5.52945 34336 ft 425 kts 300°
2026-04-26 08:56 50.57653 5.44982 34338 ft 425 kts 300°
2026-04-26 08:56 50.60696 5.36981 34335 ft 425 kts 300°
2026-04-26 08:57 50.63739 5.28975 34339 ft 425 kts 300°
2026-04-26 08:57 50.66782 5.20940 34340 ft 425 kts 300°
2026-04-26 08:58 50.69817 5.12873 34337 ft 425 kts 300°
2026-04-26 08:58 50.72853 5.04792 34337 ft 425 kts 300°
2026-04-26 08:59 50.75346 4.98142 34341 ft 425 kts 300°
2026-04-26 08:59 50.78868 4.88717 34343 ft 424 kts 300°
2026-04-26 09:00 50.81473 4.81716 34345 ft 424 kts 300°
2026-04-26 09:00 50.84359 4.73933 34343 ft 424 kts 300°
2026-04-26 09:01 50.87393 4.65739 34347 ft 424 kts 300°
2026-04-26 09:01 50.90369 4.57669 34349 ft 423 kts 300°
2026-04-26 09:02 50.93306 4.49687 34348 ft 423 kts 300°
2026-04-26 09:02 50.96259 4.41621 34351 ft 422 kts 300°
2026-04-26 09:03 50.99276 4.33371 34350 ft 421 kts 300°
2026-04-26 09:03 51.02188 4.25392 34356 ft 420 kts 300°
2026-04-26 09:04 51.05127 4.17300 34377 ft 419 kts 300°
2026-04-26 09:04 51.08021 4.09296 34374 ft 418 kts 300°
2026-04-26 09:05 51.11032 4.00951 34375 ft 417 kts 300°
2026-04-26 09:05 51.13826 3.93173 34372 ft 417 kts 300°
2026-04-26 09:06 51.16785 3.84924 34370 ft 416 kts 300°
2026-04-26 09:06 51.19566 3.77146 34367 ft 416 kts 300°
2026-04-26 09:07 51.22423 3.69123 34378 ft 415 kts 300°
2026-04-26 09:07 51.25296 3.61129 34376 ft 414 kts 300°
2026-04-26 09:08 51.28240 3.53218 34373 ft 414 kts 301°
2026-04-26 09:08 51.31190 3.45331 34376 ft 414 kts 301°
2026-04-26 09:09 51.34231 3.37110 34375 ft 413 kts 299°
2026-04-26 09:09 51.36400 3.28864 34371 ft 413 kts 291°
2026-04-26 09:10 51.38512 3.19916 34372 ft 413 kts 291°
2026-04-26 09:10 51.40536 3.11333 34378 ft 413 kts 291°
2026-04-26 09:11 51.42577 3.02703 34379 ft 413 kts 291°
2026-04-26 09:11 51.44600 2.94089 34384 ft 413 kts 291°
2026-04-26 09:12 51.46286 2.86868 34379 ft 412 kts 291°
2026-04-26 09:12 51.48356 2.77973 34383 ft 412 kts 291°
2026-04-26 09:13 51.50359 2.69346 34385 ft 412 kts 291°
2026-04-26 09:13 51.52328 2.60834 34385 ft 412 kts 291°
2026-04-26 09:14 51.54326 2.52128 34382 ft 412 kts 291°
2026-04-26 09:14 51.56302 2.43513 34380 ft 411 kts 291°
2026-04-26 09:14 51.57284 2.39212 34058 ft 411 kts 291°
2026-04-26 09:15 51.58265 2.34918 33544 ft 407 kts 291°
2026-04-26 09:15 51.59234 2.30670 33061 ft 402 kts 291°
2026-04-26 09:15 51.60189 2.26472 32578 ft 398 kts 291°
2026-04-26 09:15 51.61130 2.22312 32097 ft 394 kts 290°
2026-04-26 09:16 51.62065 2.18171 31628 ft 390 kts 290°
2026-04-26 09:16 51.62981 2.14119 31150 ft 386 kts 290°
2026-04-26 09:16 51.63893 2.10084 30693 ft 382 kts 290°
2026-04-26 09:16 51.64798 2.06073 30199 ft 379 kts 290°
2026-04-26 09:17 51.65675 2.02163 29747 ft 374 kts 290°
2026-04-26 09:17 51.66546 1.98255 29306 ft 368 kts 290°
2026-04-26 09:17 51.67419 1.94341 28872 ft 363 kts 290°
2026-04-26 09:17 51.68253 1.90588 28454 ft 359 kts 290°
2026-04-26 09:18 51.69090 1.86831 28047 ft 354 kts 290°
2026-04-26 09:18 51.69919 1.83118 27653 ft 350 kts 290°
2026-04-26 09:18 51.70733 1.79454 27262 ft 345 kts 290°
2026-04-26 09:18 51.71536 1.75821 26884 ft 341 kts 289°
2026-04-26 09:19 51.72323 1.72243 26508 ft 336 kts 289°
2026-04-26 09:19 51.73135 1.68560 26123 ft 334 kts 289°
2026-04-26 09:19 51.73877 1.65179 25771 ft 333 kts 288°
2026-04-26 09:19 51.74404 1.61616 25410 ft 331 kts 278°
2026-04-26 09:20 51.74527 1.57612 24897 ft 346 kts 268°
2026-04-26 09:20 51.74313 1.53963 24396 ft 352 kts 265°
2026-04-26 09:20 51.74055 1.50025 23858 ft 353 kts 265°
2026-04-26 09:20 51.73798 1.46092 23276 ft 352 kts 265°
2026-04-26 09:21 51.73540 1.42170 22752 ft 349 kts 265°
2026-04-26 09:21 51.73285 1.38280 22229 ft 347 kts 265°
2026-04-26 09:21 51.73025 1.34297 21691 ft 345 kts 265°
2026-04-26 09:21 51.72748 1.30088 21125 ft 343 kts 265°
2026-04-26 09:22 51.72525 1.26683 20666 ft 341 kts 265°
2026-04-26 09:22 51.72254 1.22580 20113 ft 340 kts 264°
2026-04-26 09:22 51.72027 1.19144 19650 ft 339 kts 264°
2026-04-26 09:22 51.71771 1.15290 19130 ft 338 kts 264°
2026-04-26 09:23 51.71521 1.11581 18629 ft 337 kts 264°
2026-04-26 09:23 51.71255 1.07684 18055 ft 336 kts 264°
2026-04-26 09:23 51.71000 1.03969 17556 ft 333 kts 264°
2026-04-26 09:23 51.70741 1.00224 17050 ft 330 kts 264°
2026-04-26 09:24 51.70482 0.96479 16546 ft 328 kts 264°
2026-04-26 09:24 51.70238 0.92921 16083 ft 326 kts 264°
2026-04-26 09:24 51.69979 0.89137 15628 ft 322 kts 264°
2026-04-26 09:24 51.69727 0.85505 15187 ft 319 kts 264°
2026-04-26 09:25 51.69493 0.82157 14774 ft 316 kts 264°
2026-04-26 09:25 51.69246 0.78653 14348 ft 314 kts 263°
2026-04-26 09:25 51.68997 0.75174 13896 ft 311 kts 263°
2026-04-26 09:25 51.68746 0.71669 13458 ft 320 kts 263°
2026-04-26 09:26 51.68491 0.68095 12884 ft 323 kts 263°
2026-04-26 09:26 51.68220 0.64263 12271 ft 322 kts 263°
2026-04-26 09:26 51.67973 0.60768 11727 ft 322 kts 263°
2026-04-26 09:26 51.67723 0.57272 11198 ft 321 kts 263°
2026-04-26 09:27 51.67467 0.53751 10679 ft 320 kts 263°
2026-04-26 09:27 51.67202 0.50102 10138 ft 320 kts 263°
2026-04-26 09:27 51.66941 0.46519 9583 ft 319 kts 263°
2026-04-26 09:27 51.66687 0.43034 9075 ft 317 kts 263°
2026-04-26 09:28 51.66431 0.39548 8582 ft 315 kts 263°
2026-04-26 09:28 51.66197 0.36078 8342 ft 305 kts 265°
2026-04-26 09:28 51.65974 0.32738 8344 ft 294 kts 262°
2026-04-26 09:28 51.65786 0.30612 8348 ft 293 kts 261°
2026-04-26 09:29 51.65384 0.26207 8354 ft 283 kts 261°
2026-04-26 09:29 51.65173 0.23911 8341 ft 282 kts 261°
2026-04-26 09:29 51.64909 0.21034 8357 ft 281 kts 261°
2026-04-26 09:29 51.64524 0.16831 8353 ft 281 kts 261°
2026-04-26 09:30 51.64240 0.13737 8352 ft 281 kts 261°
2026-04-26 09:30 51.64023 0.11370 8346 ft 281 kts 261°
2026-04-26 09:30 51.63758 0.08467 8359 ft 281 kts 261°
2026-04-26 09:30 51.63469 0.05315 8357 ft 281 kts 261°
2026-04-26 09:31 51.63148 0.01811 8359 ft 281 kts 261°
2026-04-26 09:31 51.62856 -0.01384 8348 ft 281 kts 261°
2026-04-26 09:31 51.62613 -0.04043 8356 ft 281 kts 261°
2026-04-26 09:31 51.62296 -0.07484 8348 ft 281 kts 261°
2026-04-26 09:32 51.62040 -0.10267 8352 ft 281 kts 261°
2026-04-26 09:32 51.61735 -0.13564 8347 ft 281 kts 261°
2026-04-26 09:32 51.61398 -0.17218 8134 ft 278 kts 261°
2026-04-26 09:32 51.61162 -0.19752 7818 ft 277 kts 261°
2026-04-26 09:33 51.60883 -0.22729 7448 ft 276 kts 261°
2026-04-26 09:33 51.60597 -0.25771 7094 ft 274 kts 261°
2026-04-26 09:33 51.60282 -0.29112 6976 ft 274 kts 261°
2026-04-26 09:33 51.60025 -0.31828 6982 ft 276 kts 261°
2026-04-26 09:34 51.59734 -0.34908 6986 ft 276 kts 261°
2026-04-26 09:34 51.59444 -0.37967 6989 ft 276 kts 261°
2026-04-26 09:34 51.59153 -0.41031 6982 ft 276 kts 261°
2026-04-26 09:34 51.58864 -0.44075 6984 ft 276 kts 261°
2026-04-26 09:35 51.58570 -0.47179 6946 ft 275 kts 261°
2026-04-26 09:35 51.58283 -0.50224 6587 ft 273 kts 261°
2026-04-26 09:35 51.57955 -0.53718 6119 ft 272 kts 261°
2026-04-26 09:35 51.57714 -0.56334 5780 ft 272 kts 261°
2026-04-26 09:36 51.57448 -0.59255 5612 ft 264 kts 261°
2026-04-26 09:36 51.57191 -0.62124 5479 ft 254 kts 261°
2026-04-26 09:36 51.56947 -0.64884 5352 ft 244 kts 261°
2026-04-26 09:36 51.56706 -0.67628 5090 ft 240 kts 261°
2026-04-26 09:37 51.56472 -0.70323 4979 ft 239 kts 261°
2026-04-26 09:37 51.56242 -0.72967 4860 ft 240 kts 261°
2026-04-26 09:37 51.56091 -0.74724 4647 ft 239 kts 261°
2026-04-26 09:37 51.55678 -0.78331 4184 ft 237 kts 244°
2026-04-26 09:38 51.54660 -0.80330 3988 ft 223 kts 208°
2026-04-26 09:38 51.53309 -0.81053 3991 ft 202 kts 185°
2026-04-26 09:38 51.51950 -0.81280 3995 ft 189 kts 181°
2026-04-26 09:38 51.50667 -0.81432 3986 ft 186 kts 181°
2026-04-26 09:39 51.49379 -0.81400 3991 ft 184 kts 161°
2026-04-26 09:39 51.48353 -0.80288 3984 ft 179 kts 130°
2026-04-26 09:39 51.47731 -0.78561 3814 ft 180 kts 107°
2026-04-26 09:39 51.47597 -0.76582 3570 ft 179 kts 90°
2026-04-26 09:40 51.47611 -0.74594 3328 ft 178 kts 90°
2026-04-26 09:40 51.47624 -0.72604 3088 ft 178 kts 91°
2026-04-26 09:40 51.47637 -0.70630 2852 ft 177 kts 91°
2026-04-26 09:40 51.47649 -0.68655 2602 ft 178 kts 91°
2026-04-26 09:41 51.47660 -0.66695 2366 ft 171 kts 91°
2026-04-26 09:41 51.47671 -0.64839 2143 ft 163 kts 91°
2026-04-26 09:41 51.47680 -0.63038 1941 ft 159 kts 91°
2026-04-26 09:41 51.47689 -0.61271 1707 ft 157 kts 91°
2026-04-26 09:42 51.47698 -0.59489 1486 ft 156 kts 91°
2026-04-26 09:42 51.47707 -0.57749 1263 ft 154 kts 91°
2026-04-26 09:42 51.47715 -0.56073 1052 ft 148 kts 90°
2026-04-26 09:42 51.47722 -0.54485 849 ft 140 kts 90°
2026-04-26 09:43 51.47727 -0.53427 728 ft 138 kts 89°
2026-04-26 09:43 51.47734 -0.51786 534 ft 136 kts 90°
2026-04-26 09:43 51.47741 -0.50330 324 ft 135 kts 90°
2026-04-26 09:43 51.47743 -0.48833 180 ft 135 kts 90°
2026-04-26 09:44 51.47750 -0.47350 85 ft 121 kts 89°
2026-04-26 09:44 51.47756 -0.46421 94 ft 25 kts 89°
2026-04-26 09:44 51.47744 -0.46210 88 ft 25 kts 116°
2026-04-26 09:44 51.47682 -0.46123 87 ft 1 kts 145°
2026-04-26 09:45 51.47623 -0.46065 89 ft 16 kts 161°
2026-04-26 09:45 51.47588 -0.46127 86 ft 8 kts 269°
2026-04-26 09:45 51.47591 -0.46223 87 ft 9 kts 272°
2026-04-26 09:45 51.47592 -0.46326 88 ft 10 kts 268°
2026-04-26 09:46 51.47591 -0.46441 88 ft 11 kts 270°
2026-04-26 09:46 51.47592 -0.46570 89 ft 12 kts 271°
2026-04-26 09:46 51.47591 -0.46720 89 ft 15 kts 269°
2026-04-26 09:46 51.47584 -0.46908 90 ft 18 kts 268°
2026-04-26 09:47 51.47582 -0.47113 88 ft 19 kts 271°
2026-04-26 09:47 51.47583 -0.47335 89 ft 21 kts 270°
2026-04-26 09:47 51.47582 -0.47574 87 ft 22 kts 270°
2026-04-26 09:47 51.47583 -0.47825 89 ft 23 kts 269°
2026-04-26 09:48 51.47581 -0.48068 91 ft 20 kts 271°
2026-04-26 09:48 51.47579 -0.48293 91 ft 21 kts 269°
2026-04-26 09:48 51.47535 -0.48473 88 ft 17 kts 191°
2026-04-26 09:48 51.47415 -0.48475 85 ft 17 kts 180°
2026-04-26 09:49 51.47307 -0.48475 85 ft 11 kts 179°
2026-04-26 09:49 51.47252 -0.48474 85 ft 0 kts 180°
2026-04-26 09:49 51.47211 -0.48475 85 ft 12 kts 181°
2026-04-26 09:50 51.47114 -0.48474 85 ft 15 kts 180°
2026-04-26 09:50 51.47005 -0.48471 86 ft 16 kts 181°
2026-04-26 09:50 51.46953 -0.48474 86 ft 0 kts 178°
2026-04-26 09:51 51.46952 -0.48474 86 ft 1 kts 177°
2026-04-26 09:51 51.46899 -0.48474 88 ft 8 kts 190°
2026-04-26 09:51 51.46878 -0.48544 85 ft 8 kts 269°
2026-04-26 09:51 51.46908 -0.48576 85 ft 4 kts
2026-04-26 09:52 51.46926 -0.48576 85 ft 0 kts